• Join FlightAware (Why Join?)
  • Login
  • US Flag 
 
09:44AM EST


 

Airport Tracker/Info


-or-


 

Live Flight TrackerFlight Track Log ✈ SWA554 ✈ 10-Apr-2013 ✈ KLAS - KPHX

Flight Track Log - Related Links

Times and Time Zones

All times are in EDT time to prevent confusion due to time zone crossing. See the SWA554 flight status page for this flight to view local times or setup timezone preferences in your user account.

Time Position Orientation Groundspeed Altitude Reporting Facility
EDT Latitude Longitude Course Direction KTS MPH feet Rate Location/Type
09:22AM 36.1028 -115.1514 35° Northeast 147 169 3,600  Level Los Angeles Center
09:22AM 36.1228 -115.1342 35° Northeast 187 215 5,700 3,720 Climbing Los Angeles Center
09:23AM 36.1311 -115.0936 76° East 209 241 7,700 3,840 Climbing Los Angeles Center
09:24AM 36.1289 -114.9969 92° East 254 292 12,000 4,320 Climbing Los Angeles Center
09:25AM 36.1069 -114.8858 104° East 306 352 16,600 3,840 Climbing Los Angeles Center
09:26AM 36.0867 -114.7703 102° East 329 379 19,900 3,420 Climbing Los Angeles Center
09:27AM 36.0625 -114.6439 103° East 357 411 23,600 3,660 Climbing Los Angeles Center
09:28AM 36.0386 -114.5136 103° East 375 432 27,400 2,640 Climbing Los Angeles Center
09:29AM 36.0139 -114.3856 103° East 382 440 29,000 780 Climbing Los Angeles Center
09:30AM 35.9903 -114.2608 103° East 378 435 29,000  Level Los Angeles Center
09:31AM 35.9672 -114.1358 103° East 376 433 29,000  Level Los Angeles Center
09:32AM 35.9433 -114.0114 103° East 374 430 29,000  Level Los Angeles Center
09:33AM 35.9183 -113.8869 104° East 374 430 29,000  Level Los Angeles Center
09:34AM 35.8753 -113.7647 113° Southeast 388 447 29,000  Level Los Angeles Center
09:35AM 35.8250 -113.6167 113° Southeast 390 449 29,000  Level Los Angeles Center
09:36AM 35.7825 -113.4942 113° Southeast 390 449 29,000  Level Los Angeles Center
09:37AM 35.7397 -113.3747 114° Southeast 384 442 29,000  Level Los Angeles Center
09:38AM 35.6981 -113.2556 113° Southeast 382 440 29,000  Level Los Angeles Center
09:39AM 35.6575 -113.1408 113° Southeast 379 436 29,000  Level Los Angeles Center
09:40AM 35.5886 -113.0356 129° Southeast 408 470 29,000  Level Los Angeles Center
09:41AM 35.4636 -112.9503 151° Southeast 428 493 29,000  Level Los Angeles Center
09:42AM 35.3628 -112.8742 148° Southeast 429 494 29,000  Level Los Angeles Center
09:43AM 35.2858 -112.8203 150° Southeast 422 486 29,000  Level Albuquerque Center
09:44AM 35.1672 -112.7378 150° Southeast 420 483 29,000  Level Albuquerque Center
09:45AM 35.0653 -112.6650 150° Southeast 421 484 29,000  Level Albuquerque Center
09:46AM 34.9636 -112.5936 150° Southeast 422 486 29,000 -60 Level Albuquerque Center
09:47AM 34.8503 -112.5144 150° Southeast 458 527 28,900 -1,140 Descending Albuquerque Center
09:48AM 34.7375 -112.4342 150° Southeast 467 537 26,700 -2,400 Descending Albuquerque Center
09:49AM 34.6297 -112.3594 150° Southeast 449 517 24,100 -2,460 Descending Albuquerque Center
09:50AM 34.5258 -112.2869 150° Southeast 423 487 21,700 -2,040 Descending Albuquerque Center
09:51AM 34.4281 -112.2242 152° Southeast 403 464 20,000 -840 Descending Albuquerque Center
09:52AM 34.3197 -112.1975 169° South 397 457 20,000 -960 Level Albuquerque Center
09:53AM 34.2147 -112.1694 168° South 391 450 18,100 -2,040 Descending Albuquerque Center
09:54AM 34.1128 -112.1433 168° South 378 435 15,900 -1,860 Descending Albuquerque Center
09:55AM 33.9969 -112.1136 168° South 358 412 14,400 -1,620 Descending Albuquerque Center
09:56AM 33.9050 -112.0894 168° South 344 396 12,600 -1,740 Descending Albuquerque Center
09:57AM 33.8167 -112.0672 168° South 331 381 10,900 -1,320 Descending Albuquerque Center
09:58AM 33.7331 -112.0481 169° South 310 357 10,000 -720 Descending Albuquerque Center
09:59AM 33.6533 -112.0347 172° South 294 338 9,500 -600 Descending Albuquerque Center
10:00AM 33.5822 -112.0203 170° South 262 302 8,900 -840 Descending Albuquerque Center
10:01AM 33.5303 -111.9764 145° Southeast 236 272 7,900 -960 Descending Albuquerque Center
10:02AM 33.5272 -111.9022 93° East 226 260 7,000 -1,380 Descending Albuquerque Center
10:03AM 33.5264 -111.8144 91° East 222 255 5,200 -1,500 Descending Albuquerque Center
10:04AM 33.4794 -111.8114 177° South 212 244 4,000 -1,080 Descending Albuquerque Center
10:06AM 33.4450 -111.8650 232° Southwest 203 234 3,100 -840 Descending Albuquerque Center
10:07AM 33.4408 -111.9222 265° West 178 205 2,300 -780 Descending Albuquerque Center
10:08AM 33.4411 -111.9667 270° West 138 159 1,600 -540 Descending Albuquerque Center
10:09AM 33.4386 -112.0111 266° West 127 146 1,200 -420 Descending Albuquerque Center